User: anonymous   Login
Location: Irma
(52.9170°N, 111.2330°W)
Time: 18:19:28
(UTC-06:00)
Language:

deb Chang Zheng 4 - Orbit

View from above orbital plane
View from above orbital plane
View from above satellite
View from above satellite

Ground track
Ground track

The orbit data is extracted from the following two-line orbital elements,

1 20847U 90081K   17080.62964256 +.00001881 +00000-0 +25604-3 0  9993
2 20847 098.5401 319.2866 0017709 350.8081 009.2802 14.79991275392643
Epoch (UTC): 21 March 2017 15:06:41
Eccentricity: 0.0017709
inclination: 98.5401°
perigee height: 617 km
apogee height: 642 km
right ascension of ascending node: 319.2866°
argument of perigee: 350.8081°
revolutions per day: 14.79991275
mean anomaly at epoch: 9.2802°
orbit number at epoch: 39264

The dashed part of the orbit path shows where the satellite is in the earth's shadow,  

DLR